DLH7H EGLL-EDDF

Flight info

Callsign DLH7H
Flight time N/A
Altitude 35000
Route BPK Q295 MATCH DCT REDFA DCT TACHA DCT NOLRU DCT DIXAT
Aircraft A321/M-SDE3FGHIRWY/LB1

Departure

Time 2026-05-05 07:05
Airport London Heathrow Airport (EGLL)

Arrival

Time N/A
Airport Frankfurt Main Airport (EDDF)
Time Latitude Longitude Altitude Speed Heading
2026-05-05 06:28 51.46953 -0.44721 87 ft 0 kts 266°
2026-05-05 06:55 51.46953 -0.44713 87 ft 3 kts 266°
2026-05-05 06:55 51.46955 -0.44671 87 ft 4 kts 266°
2026-05-05 06:55 51.46957 -0.44628 87 ft 3 kts 266°
2026-05-05 06:55 51.46959 -0.44594 87 ft 4 kts 246°
2026-05-05 06:56 51.46974 -0.44564 91 ft 4 kts 200°
2026-05-05 06:56 51.46997 -0.44558 90 ft 3 kts 180°
2026-05-05 06:56 51.47000 -0.44558 89 ft 0 kts 180°
2026-05-05 06:58 51.46995 -0.44558 90 ft 2 kts 180°
2026-05-05 06:58 51.46954 -0.44558 88 ft 11 kts 180°
2026-05-05 06:59 51.46867 -0.44558 87 ft 13 kts 180°
2026-05-05 06:59 51.46771 -0.44566 91 ft 14 kts 204°
2026-05-05 06:59 51.46751 -0.44712 87 ft 15 kts 269°
2026-05-05 06:59 51.46751 -0.44894 87 ft 20 kts 270°
2026-05-05 07:00 51.46750 -0.45129 87 ft 22 kts 270°
2026-05-05 07:00 51.46750 -0.45377 87 ft 23 kts 270°
2026-05-05 07:00 51.46751 -0.45637 87 ft 24 kts 270°
2026-05-05 07:00 51.46747 -0.45905 89 ft 24 kts 269°
2026-05-05 07:01 51.46747 -0.46131 91 ft 20 kts 270°
2026-05-05 07:01 51.46747 -0.46358 91 ft 21 kts 270°
2026-05-05 07:01 51.46748 -0.46597 87 ft 22 kts 271°
2026-05-05 07:01 51.46748 -0.46819 87 ft 15 kts 269°
2026-05-05 07:02 51.46746 -0.46994 87 ft 17 kts 269°
2026-05-05 07:02 51.46745 -0.47187 87 ft 18 kts 270°
2026-05-05 07:02 51.46736 -0.47330 87 ft 10 kts 236°
2026-05-05 07:02 51.46668 -0.47369 89 ft 11 kts 220°
2026-05-05 07:03 51.46645 -0.47486 90 ft 11 kts 232°
2026-05-05 07:03 51.46615 -0.47497 89 ft 0 kts 180°
2026-05-05 07:04 51.46605 -0.47497 88 ft 5 kts 180°
2026-05-05 07:04 51.46535 -0.47497 86 ft 15 kts 180°
2026-05-05 07:04 51.46481 -0.47382 86 ft 15 kts 90°
2026-05-05 07:05 51.46481 -0.47154 87 ft 40 kts 90°
2026-05-05 07:05 51.46487 -0.46276 92 ft 115 kts 89°
2026-05-05 07:05 51.46501 -0.44684 226 ft 159 kts 88°
2026-05-05 07:05 51.46520 -0.42888 972 ft 163 kts 86°
2026-05-05 07:06 51.46687 -0.41074 1623 ft 170 kts 66°
2026-05-05 07:06 51.47353 -0.39455 2043 ft 182 kts 48°
2026-05-05 07:06 51.48239 -0.37843 2370 ft 204 kts 46°
2026-05-05 07:06 51.49237 -0.36042 2632 ft 229 kts 47°
2026-05-05 07:07 51.50329 -0.34040 3167 ft 245 kts 47°
2026-05-05 07:07 51.51450 -0.31945 3939 ft 251 kts 49°
2026-05-05 07:07 51.52393 -0.29558 4690 ft 258 kts 68°
2026-05-05 07:07 51.52997 -0.26817 5465 ft 263 kts 70°
2026-05-05 07:08 51.53632 -0.24028 5927 ft 268 kts 63°
2026-05-05 07:08 51.54702 -0.21595 6006 ft 267 kts 43°
2026-05-05 07:08 51.56229 -0.19943 6004 ft 265 kts 22°
2026-05-05 07:08 51.57951 -0.18872 6007 ft 266 kts 21°
2026-05-05 07:09 51.59090 -0.18135 6009 ft 266 kts 18°
2026-05-05 07:09 51.60700 -0.17375 6009 ft 266 kts 15°
2026-05-05 07:09 51.62489 -0.16510 6601 ft 270 kts 20°
2026-05-05 07:09 51.64086 -0.14927 7345 ft 275 kts 44°
2026-05-05 07:10 51.65148 -0.12346 8050 ft 282 kts 69°
2026-05-05 07:10 51.65521 -0.09227 8759 ft 287 kts 82°
2026-05-05 07:10 51.65792 -0.06020 9484 ft 291 kts 77°
2026-05-05 07:10 51.66087 -0.04198 9902 ft 293 kts 73°
2026-05-05 07:11 51.66679 -0.01000 10325 ft 308 kts 72°
2026-05-05 07:11 51.67334 0.02422 10484 ft 331 kts 72°
2026-05-05 07:11 51.68014 0.05929 10732 ft 347 kts 72°
2026-05-05 07:11 51.68738 0.09680 11312 ft 352 kts 72°
2026-05-05 07:12 51.69459 0.13462 11982 ft 354 kts 72°
2026-05-05 07:12 51.70177 0.17255 12666 ft 357 kts 72°
2026-05-05 07:12 51.70905 0.21094 13344 ft 359 kts 73°
2026-05-05 07:12 51.71638 0.24965 13991 ft 362 kts 73°
2026-05-05 07:13 51.72375 0.28864 14573 ft 365 kts 73°
2026-05-05 07:13 51.73119 0.32810 15116 ft 369 kts 73°
2026-05-05 07:13 51.73867 0.36787 15666 ft 373 kts 73°
2026-05-05 07:13 51.74625 0.40809 16213 ft 376 kts 73°
2026-05-05 07:14 51.75388 0.44873 16760 ft 380 kts 74°
2026-05-05 07:14 51.76146 0.48928 17269 ft 384 kts 74°
2026-05-05 07:14 51.76918 0.53080 17808 ft 388 kts 74°
2026-05-05 07:14 51.77697 0.57275 18323 ft 391 kts 74°
2026-05-05 07:15 51.78480 0.61499 18781 ft 394 kts 74°
2026-05-05 07:15 51.79270 0.65767 19240 ft 397 kts 74°
2026-05-05 07:15 51.80062 0.70051 19686 ft 400 kts 74°
2026-05-05 07:15 51.80863 0.74380 20140 ft 403 kts 74°
2026-05-05 07:16 51.81665 0.78733 20589 ft 406 kts 75°
2026-05-05 07:16 51.82475 0.83125 21034 ft 409 kts 75°
2026-05-05 07:16 51.83288 0.87552 21458 ft 412 kts 75°
2026-05-05 07:16 51.84104 0.92017 21878 ft 416 kts 75°
2026-05-05 07:17 51.84924 0.96527 22304 ft 419 kts 75°
2026-05-05 07:17 51.85735 1.01007 22709 ft 422 kts 75°
2026-05-05 07:17 51.86561 1.05585 23129 ft 426 kts 75°
2026-05-05 07:17 51.87391 1.10197 23541 ft 429 kts 76°
2026-05-05 07:18 51.88230 1.14852 23891 ft 432 kts 75°
2026-05-05 07:18 51.89074 1.19534 24252 ft 435 kts 75°
2026-05-05 07:18 51.89920 1.24247 24606 ft 437 kts 75°
2026-05-05 07:18 51.90768 1.28997 24958 ft 440 kts 75°
2026-05-05 07:19 51.91617 1.33781 25305 ft 443 kts 75°
2026-05-05 07:19 51.92472 1.38590 25650 ft 446 kts 75°
2026-05-05 07:19 51.93331 1.43424 25992 ft 448 kts 75°
2026-05-05 07:19 51.94194 1.48297 26327 ft 451 kts 75°
2026-05-05 07:20 51.95059 1.53192 26662 ft 454 kts 75°
2026-05-05 07:20 51.95930 1.58129 26995 ft 456 kts 75°
2026-05-05 07:20 51.96806 1.63093 27334 ft 459 kts 75°
2026-05-05 07:20 51.97688 1.68099 27655 ft 462 kts 75°
2026-05-05 07:21 51.98567 1.73123 27984 ft 465 kts 75°
2026-05-05 07:21 51.99444 1.78180 28307 ft 467 kts 75°
2026-05-05 07:21 52.00324 1.83272 28627 ft 470 kts 75°
2026-05-05 07:21 52.01207 1.88399 28936 ft 472 kts 75°
2026-05-05 07:22 52.02091 1.93541 29238 ft 475 kts 75°
2026-05-05 07:22 52.02969 1.98652 29514 ft 477 kts 75°
2026-05-05 07:22 52.03864 2.03863 29782 ft 480 kts 75°
2026-05-05 07:22 52.04763 2.09096 30044 ft 482 kts 75°
2026-05-05 07:23 52.05663 2.14351 30267 ft 484 kts 75°
2026-05-05 07:23 52.06563 2.19617 30608 ft 482 kts 75°
2026-05-05 07:23 52.07454 2.24861 30959 ft 481 kts 75°
2026-05-05 07:23 52.08336 2.30095 31317 ft 479 kts 75°
2026-05-05 07:24 52.09212 2.35301 31679 ft 477 kts 76°
2026-05-05 07:24 52.10084 2.40504 32025 ft 475 kts 76°
2026-05-05 07:24 52.10948 2.45685 32381 ft 474 kts 76°
2026-05-05 07:24 52.11814 2.50848 32744 ft 472 kts 75°
2026-05-05 07:25 52.12733 2.55961 33102 ft 470 kts 74°
2026-05-05 07:25 52.13701 2.61030 33453 ft 469 kts 73°
2026-05-05 07:25 52.14697 2.66080 33813 ft 467 kts 73°
2026-05-05 07:25 52.15692 2.71094 34135 ft 465 kts 73°
2026-05-05 07:26 52.16344 2.74419 34306 ft 465 kts 73°
2026-05-05 07:26 52.17313 2.79436 34545 ft 464 kts 74°
2026-05-05 07:26 52.18266 2.84469 34761 ft 465 kts 74°
2026-05-05 07:26 52.19208 2.89509 34939 ft 466 kts 74°
2026-05-05 07:27 52.20145 2.94548 34991 ft 463 kts 74°
2026-05-05 07:27 52.22302 3.06204 34990 ft 462 kts 74°
2026-05-05 07:28 52.23835 3.14611 34988 ft 461 kts 77°
2026-05-05 07:28 52.24328 3.26620 34989 ft 457 kts 99°
2026-05-05 07:29 52.23046 3.34922 34987 ft 453 kts 114°
2026-05-05 07:29 52.20757 3.44494 34985 ft 454 kts 114°
2026-05-05 07:30 52.18459 3.54077 34986 ft 454 kts 114°
2026-05-05 07:30 52.14982 3.68467 34988 ft 455 kts 114°
2026-05-05 07:31 52.12652 3.78054 34990 ft 456 kts 114°
2026-05-05 07:31 52.10369 3.87423 34990 ft 456 kts 114°
2026-05-05 07:32 52.08023 3.97011 34979 ft 457 kts 114°
2026-05-05 07:32 52.05666 4.06613 34972 ft 457 kts 114°
2026-05-05 07:33 52.03307 4.16142 34967 ft 458 kts 115°
2026-05-05 07:33 52.00927 4.25733 34959 ft 458 kts 115°
2026-05-05 07:34 51.98543 4.35315 34957 ft 459 kts 115°
2026-05-05 07:34 51.96145 4.44912 34957 ft 459 kts 115°
2026-05-05 07:35 51.93734 4.54505 34959 ft 460 kts 115°
2026-05-05 07:35 51.91314 4.64098 34962 ft 460 kts 116°
2026-05-05 07:36 51.88880 4.73693 34976 ft 460 kts 116°
2026-05-05 07:36 51.86436 4.83274 34970 ft 460 kts 116°
2026-05-05 07:37 51.83993 4.92853 34963 ft 460 kts 116°
2026-05-05 07:37 51.81558 5.02349 34963 ft 460 kts 116°
2026-05-05 07:38 51.79092 5.11895 34963 ft 461 kts 117°
2026-05-05 07:38 51.76618 5.21452 34962 ft 461 kts 117°
2026-05-05 07:39 51.74139 5.30971 34957 ft 460 kts 117°
2026-05-05 07:39 51.71649 5.40494 34956 ft 461 kts 117°
2026-05-05 07:40 51.69156 5.50010 34951 ft 461 kts 117°
2026-05-05 07:40 51.66660 5.59508 34946 ft 461 kts 117°
2026-05-05 07:41 51.64147 5.69011 34952 ft 461 kts 118°
2026-05-05 07:41 51.61650 5.78442 34951 ft 461 kts 118°
2026-05-05 07:42 51.59120 5.87935 34950 ft 462 kts 118°
2026-05-05 07:42 51.56579 5.97423 34929 ft 462 kts 118°
2026-05-05 07:43 51.54029 6.06895 34926 ft 462 kts 118°
2026-05-05 07:43 51.51469 6.16373 34926 ft 462 kts 118°
2026-05-05 07:44 51.50187 6.21103 34932 ft 462 kts 118°
2026-05-05 07:45 51.47802 6.30452 34918 ft 464 kts 116°
2026-05-05 07:45 51.45487 6.40104 34916 ft 465 kts 116°
2026-05-05 07:46 51.43156 6.49782 34919 ft 465 kts 116°
2026-05-05 07:46 51.40764 6.59422 34900 ft 466 kts 117°
2026-05-05 07:47 51.38357 6.69059 34899 ft 466 kts 116°
2026-05-05 07:47 51.35943 6.78693 34859 ft 467 kts 117°
2026-05-05 07:48 51.34733 6.83511 34299 ft 469 kts 117°
2026-05-05 07:48 51.33510 6.88373 33334 ft 476 kts 117°